Timestamp,Temp,Chill,HIndex,Humid,Dewpt,Wind,HiWind,WindDir,Rain,RainRate,Barom,Solar,ET,UV,InsideTemp,InsideHumid
2020-02-04 00:00:00,41.6999999999999,38.0314322564141,41.6999999999999,78,35.3555085296735,6.71140939597315,17,262.241332598488,0,0,29.4561879194631,0,0.00007972212261879,0,73.5597315436242,36
2020-02-04 00:05:00,41.6999999999999,37.7058195864071,41.6999999999999,78,35.3555085296735,6.95302013422819,15,255.208277715123,0,0,29.4556711409396,0,0.0000778407248723759,0,73.5,36
2020-02-04 00:10:00,41.7140939597315,37.4320162266935,41.7140939597315,78,35.3691966906285,7.71812080536913,18,270.867260934619,0,0,29.4582214765101,0,0.0000785681780231741,0,73.5,36
2020-02-04 00:15:00,41.7959731543625,36.1649473538261,41.7959731543625,78.5369127516778,35.6210453839084,10.3020134228188,26,268.282533985153,0,0,29.4636375838926,0,0.0000794612780026044,0,73.5,36
2020-02-04 00:20:00,41.6838926174497,35.969213842019,41.6838926174497,79.8523489932886,35.9310172623867,10.1476510067114,26,292.055794553511,0,0,29.4707852348993,0,0.00007961389611761,0,73.5610738255036,36
2020-02-04 00:25:00,41.261744966443,37.554755662656,41.261744966443,80.9731543624161,35.8708588275522,6.1744966442953,22,284.735018795819,0,0,29.4673758389261,0,0.0000784150542328628,0,73.6000000000002,36
2020-02-04 00:30:00,40.9317880794702,36.0412264643937,40.9317880794702,82.6225165562914,36.0576200391994,8.00662251655629,17,295.949788693266,0,0,29.4767682119205,0,0.000074424390748092,0,73.6000000000002,36
2020-02-04 00:35:00,40.0880794701986,35.9759121919981,40.0880794701986,83.4304635761589,35.4774111820845,6.60264900662252,19,286.660439280965,0,0,29.4742119205298,0,0.000070863935324817,0,73.7205298013244,36
2020-02-04 00:40:00,39.4872483221476,34.9582573277587,39.4872483221476,85.510067114094,35.5081897320133,6.88590604026846,19,277.137498204998,0,0,29.4689865771812,0,0.0000809322017434496,0,73.7999999999999,36
2020-02-04 00:45:00,39.1865771812081,36.8134049435649,39.1865771812081,86.3825503355705,35.4687331938069,4.2013422818792,17,275.929718124161,0,0,29.468,0,0.0000762603026178083,0,73.7999999999999,36
2020-02-04 00:50:00,38.9583892617449,35.8665017206196,38.9583892617449,87,35.4240347805011,4.91946308724832,13,262.524227637329,0,0,29.4683825503356,0,0.0000719169075030505,0,73.7999999999999,36
2020-02-04 00:55:00,38.9154362416107,34.6782279874489,38.9154362416107,87.8523489932886,35.6271106815219,6.53691275167785,16,266.121300591647,0,0,29.4667852348993,0,0.0000679314242970049,0,73.7999999999999,36
2020-02-04 01:00:00,39,35.8339099505089,39,88,35.7529116280439,5.3489932885906,16,269.604551764917,0,0,29.4617785234898,0,0.0000662069731853563,0,73.7999999999999,36
2020-02-04 01:05:00,39,35.2555798194746,39,88,35.7529116280439,5.93288590604027,14,254.21385576854,0,0,29.4575973154363,0,0.0000650043725726545,0,73.7986577181207,36
2020-02-04 01:10:00,39.0154362416108,35.2114121257258,39.0154362416108,88,35.7681181801683,5.80536912751678,14,265.481233505854,0,0,29.4555838926175,0,0.0000628617477076706,0,73.6000000000002,36
2020-02-04 01:15:00,39.0932885906041,35.6549434505298,39.0932885906041,88,35.8448120952306,5.42953020134228,14,255.99826225966,0,0,29.4543959731543,0,0.0000574862302312788,0,73.6000000000002,36
2020-02-04 01:20:00,39.1302013422818,35.0694437204394,39.1302013422818,88,35.8811754872674,6.14093959731544,15,259.765433673787,0,0,29.4544093959732,0,0.0000521765367219782,0,73.6000000000002,36
2020-02-04 01:25:00,39.296644295302,34.2367858732143,39.296644295302,87.3020134228188,35.8438557073303,7.5503355704698,21,264.047338783433,0,0,29.4568053691275,0,0.0000488367580198443,0,73.6000000000002,36
2020-02-04 01:30:00,39.5320000000001,35.7880123252841,39.5320000000001,87,35.9883523574743,6.08,21,267.082263870087,0,0,29.4622000000001,0,0.0000464472147942406,0,73.5993333333335,36
2020-02-04 01:35:00,39.6778523489932,34.46844243888,39.6778523489932,86.013422818792,35.8439770325314,8.45637583892617,22,275.211439521199,0,0,29.467610738255,0,0.0000421583411102753,0,73.5,36
2020-02-04 01:40:00,39.6834437086093,34.4981831202712,39.6834437086093,85.5562913907285,35.7147679056783,8.33112582781457,22,278.940109174225,0,0,29.4741986754966,0,0.000042128895491485,0,73.5,36
2020-02-04 01:45:00,39.3841059602649,34.6794676246588,39.3841059602649,85.0794701986755,35.2804477655816,7.56291390728477,18,286.20235769907,0,0,29.4749867549669,0,0.0000448753941447296,0,73.5,36
2020-02-04 01:50:00,39.1019867549669,32.9891520531293,39.1019867549669,86,35.27429360526,9.49668874172185,25,290.88969210699,0,0,29.4853509933775,0,0.0000469702112653391,0,73.5,36
2020-02-04 01:55:00,38.6463087248322,31.1546509316035,38.6463087248322,86.5167785234899,34.976812902672,12.8724832214765,26,293.128561793636,0,0,29.4996577181209,0,0.0000483474307870047,0,73.5,36
2020-02-04 02:00:00,37.2114093959731,32.2917107681413,37.2114093959731,86.3557046979866,33.5192109950666,7.26845637583893,26,286.754957285596,0,0,29.4903691275167,0,0.0000513701477768069,0,73.4583892617448,36
2020-02-04 02:05:00,36.5080536912751,33.1023959259834,36.5080536912751,88.1543624161074,33.3414128396252,4.96644295302013,22,273.344564407145,0,0,29.4827852348994,0,0.0000511043320670441,0,73.2999999999999,36
2020-02-04 02:10:00,36.2429530201341,32.2661717936085,36.2429530201341,88.8389261744966,33.2728905209912,5.57718120805369,11,275.572275082275,0,0,29.4842013422819,0,0.0000501052429046893,0,73.3416107382551,36
2020-02-04 02:15:00,36.1557046979866,35.2091330321861,36.1557046979866,89.2684563758389,33.3069473109323,2.6510067114094,11,273.440906137289,0,0,29.4835973154362,0,0.0000487796441067501,0,73.5,36
2020-02-04 02:20:00,36.1208053691275,34.488159053973,36.1208053691275,90,33.4762910864028,3.32214765100671,11,285.352941887985,0,0,29.4870067114094,0,0.0000466135651654563,0,73.5,36
2020-02-04 02:25:00,36.1932885906039,35.6631870928143,36.1932885906039,90,33.5478895047517,2,11,332.452195089712,0,0,29.4892013422818,0,0.0000436603363539571,0,73.5409395973156,36
2020-02-04 02:30:00,36.286577181208,34.3363608622219,36.286577181208,90,33.6400390146844,3.61744966442953,9,285.020352680318,0,0,29.486389261745,0,0.000042006932085694,0,73.6000000000002,36
2020-02-04 02:35:00,36.484105960265,33.5735283383714,36.484105960265,90.1721854304636,33.882752543751,4.70198675496689,10,279.102300530384,0,0,29.4856026490067,0,0.00003995828037179,0,73.6013245033115,36
2020-02-04 02:40:00,36.714,32.8626778076194,36.714,90.32,34.1507815448529,5.30666666666667,10,284.679790316103,0,0,29.4824,0,0.00003787678195929,0,73.7999999999999,36
2020-02-04 02:45:00,37.006711409396,31.3108116282402,37.006711409396,90.0201342281879,34.3569460003131,7.79194630872483,16,289.604862460213,0,0,29.4810067114094,0,0.0000349061524479852,0,73.7999999999999,36
2020-02-04 02:50:00,37.3490066225166,33.0330541015826,37.3490066225166,90,34.6894794367472,6.34437086092715,19,284.300683120638,0,0,29.4811920529802,0,0.0000333011434098721,0,73.7999999999999,36
2020-02-04 02:55:00,37.6490066225165,33.843619634733,37.6490066225165,89.5894039735099,34.8705943306384,5.74172185430464,19,285.301205311986,0,0,29.4806026490066,0,0.0000296985599106026,0,73.7999999999999,36
2020-02-04 03:00:00,37.9073825503356,32.8829898451867,37.9073825503356,88.7785234899329,34.8973224394145,7.44295302013423,16,294.006828310598,0,0,29.484610738255,0,0.0000266177264289899,0,73.7999999999999,36
2020-02-04 03:05:00,38.2194630872483,33.1628000817968,38.2194630872483,87.6308724832215,34.8780229510288,7.59731543624161,15,281.510228332509,0,0,29.4910201342282,0,0.000026853360399793,0,73.7999999999999,36
2020-02-04 03:10:00,38.5181208053692,34.5422375252136,38.5181208053692,86.8322147651007,34.9421748612378,5.9261744966443,15,299.46929206267,0,0,29.4978053691275,0,0.000029550896764748,0,73.7999999999999,36
2020-02-04 03:15:00,38.7617449664429,33.7857168999134,38.7617449664429,86,34.9400113974867,7.42953020134228,16,285.206071925365,0,0,29.4988187919462,0,0.0000323378745098706,0,73.7999999999999,36
2020-02-04 03:20:00,39.0738255033556,34.600530872227,39.0738255033556,84.7315436241611,34.8727610580249,7.14765100671141,22,288.007932945081,0,0,29.5012013422819,0,0.0000356113290749128,0,73.7999999999999,36
2020-02-04 03:25:00,39.4093959731544,33.1164864240644,39.4093959731544,83.3892617449664,34.8007017021443,10.1610738255034,22,271.190805411225,0,0,29.5023892617449,0,0.0000402537098011141,0,73.7986577181207,35.7919463087248
2020-02-04 03:30:00,39.6912751677852,35.2342967075943,39.6912751677852,82.0671140939597,34.6756720667396,6.94630872483221,22,280.178496365583,0,0,29.4983825503355,0,0.0000458779890298679,0,73.6000000000002,35.2080536912752
2020-02-04 03:35:00,39.8000000000001,36.0954583566399,39.8000000000001,81.4362416107383,34.5880141132258,6.1006711409396,15,264.664783712713,0,0,29.4919865771812,0,0.0000497802436430736,0,73.6000000000002,36
2020-02-04 03:40:00,39.8000000000001,34.3654862615759,39.8000000000001,80.8255033557047,34.3994979036667,8.60402684563758,24,284.925337018255,0,0,29.4911946308725,0,0.0000521332567174872,0,73.6000000000002,35.5906040268456
2020-02-04 03:45:00,39.8000000000001,35.7026832993376,39.8000000000001,80.1476510067114,34.1886315819099,6.32214765100671,24,270.979178280413,0,0,29.4922080536913,0,0.0000538798622897853,0,73.6000000000002,35
2020-02-04 03:50:00,39.8570469798657,36.3841379475409,39.8570469798657,80,34.1982751609464,6.13422818791946,20,282.27856737286,0,0,29.4954228187919,0,0.0000560843560180104,0,73.5993288590606,35.4093959731544
2020-02-04 03:55:00,39.9382550335571,35.0572000817522,39.9382550335571,79.7114093959731,34.1865332535306,7.59731543624161,20,274.091878938234,0,0,29.5012147651007,0,0.00005823837993314,0,73.5,35.993288590604
2020-02-04 04:00:00,40.1046357615893,35.5349865030462,40.1046357615893,79.5099337748344,34.2851174368618,7.90728476821192,22,279.902458083883,0,0,29.5041920529802,0,0.0000612793995805837,0,73.5,35
2020-02-04 04:05:00,40.21059602649,36.367076646841,40.21059602649,79.9139072847682,34.5155687196734,6.19205298013245,22,296.613878672371,0,0,29.5068013245033,0,0.0000637104971993409,0,73.5,36
2020-02-04 04:10:00,40.2625,34.2755816793807,40.2625,80,34.5932603482959,9.5,14,254.043892815247,0,0,29.507,0,0.0000657098086838707,0,73.5,36
2020-02-04 04:20:00,40.4,37.3070820652718,40.4,79,34.4118178311521,5.31034482758621,13,288.522540878205,0,0,29.4995517241379,0,0.0000727316681056008,0,73.5,36
2020-02-04 04:25:00,40.4067114093959,35.3883574633188,40.4067114093959,79,34.4183462404978,8.24832214765101,18,278.49130570733,0,0,29.4990134228188,0,0.0000735004217745068,0,73.5,36
2020-02-04 04:30:00,40.506711409396,35.3435878085762,40.506711409396,79,34.5156194945624,8.11409395973154,18,273.593990729547,0,0,29.4995906040269,0,0.0000757517506808862,0,73.5,36
2020-02-04 04:35:00,40.6006711409397,35.837447760714,40.6006711409397,78.5704697986577,34.469898412633,7.64429530201342,18,270.161991381935,0,0,29.4970134228188,0,0.0000639388024741788,0,73.5,36
2020-02-04 04:40:00,40.6999999999999,35.3858218665067,40.6999999999999,78,34.3842655160058,8.61073825503356,18,287.609872778104,0,0,29.4974093959731,0,0.0000654688369589218,0,73.5,35.5906040268456
2020-02-04 04:45:00,40.7302013422819,36.767503501606,40.7302013422819,78,34.4135992335456,6.67114093959732,18,288.570177531617,0,0,29.495610738255,0,0.0000689166493753604,0,73.5208053691276,35
2020-02-04 04:50:00,40.8000000000001,36.0837117999753,40.8000000000001,77.3020134228188,34.2558351653514,8.12080536912752,20,290.951191284109,0,0,29.4961946308724,0,0.0000694495598316124,0,73.6000000000002,35
2020-02-04 04:55:00,40.8000000000001,35.8831132576197,40.8000000000001,77,34.1582381490737,8.04697986577181,20,284.415851787406,0,0,29.5003959731544,0,0.0000715425467737237,0,73.6000000000002,35
2020-02-04 05:00:00,40.8000000000001,36.2060121257974,40.8000000000001,77,34.1582381490737,7.48322147651007,18,283.114567985456,0,0,29.5016040268457,0,0.0000723776631377431,0,73.6000000000002,35
2020-02-04 05:05:00,40.8264900662252,35.1353058520891,40.8264900662252,76.2119205298013,33.9262784630229,9.6953642384106,21,292.581091613049,0,0,29.5000132450332,0,0.0000734708668680637,0,73.6000000000002,35
2020-02-04 05:10:00,40.8999999999999,35.7405215418043,40.8999999999999,75.6622516556291,33.8164407682394,8.76158940397351,21,281.233636795173,0,0,29.4995894039736,0,0.0000775180264282836,0,73.6000000000002,35
2020-02-04 05:15:00,40.9728476821192,35.3986403663742,40.9728476821192,75.317880794702,33.7729784997844,9.41059602649007,21,273.125866056852,0,0,29.5003973509933,0,0.0000795105496796974,0,73.6000000000002,35
2020-02-04 05:20:00,41.1308724832214,35.4916087808929,41.1308724832214,76,34.1517457508975,9.5503355704698,21,291.761318942411,0,0,29.5022147651007,0,0.0000834446125932709,0,73.6818791946308,35
2020-02-04 05:25:00,41.2442953020135,35.7002197059775,41.2442953020135,76.006711409396,34.2637729278632,9.66442953020134,22,282.576914122534,0,0,29.5076174496644,0,0.0000847214500902038,0,73.7999999999999,35
2020-02-04 05:30:00,41.2791946308725,35.8205493975501,41.2791946308725,77.1543624161074,34.6729333242032,9.22818791946309,22,290.148282253055,0,0,29.5117986577182,0,0.0000870546308555442,0,73.7181208053693,35
2020-02-04 05:35:00,41.1939597315436,35.6773627438804,41.1939597315436,78.1275167785235,34.9048319782025,9.16778523489933,20,283.276135142945,0,0,29.5114161073826,0,0.0000896392884648554,0,73.6000000000002,35
2020-02-04 05:40:00,41.0328859060402,36.4876436350291,41.0328859060402,79,35.0274363857672,7.85906040268456,21,293.504524902818,0,0,29.5120067114094,0,0.0000897964941209571,0,73.6000000000002,35
2020-02-04 05:45:00,40.8449664429531,36.1749225146249,40.8449664429531,79.4228187919463,34.978241001244,7.77181208053691,21,293.657661827734,0,0,29.5088255033558,0,0.0000887663031540968,0,73.6000000000002,35
2020-02-04 05:50:00,40.7093959731543,35.3157500085275,40.7093959731543,79.2617449664429,34.7954528368819,9.18791946308725,24,285.648862230744,0,0,29.5111946308724,0,0.0000875636252454545,0,73.6000000000002,35
2020-02-04 05:55:00,40.7429530201343,34.1328620512604,40.7429530201343,78.4563758389262,34.5717375045006,11.6778523489933,24,291.644206977121,0,0,29.5083825503356,0,0.0000882736003642293,0,73.5187919463087,35
2020-02-04 06:00:00,40.9149659863946,37.1674102033404,40.9149659863946,77.1224489795918,34.3093127231889,6.22448979591837,22,281.102394375838,0,0,29.5048163265306,0,0.0000911601563294103,0,73.5,35
2020-02-04 06:05:00,41.0315436241612,35.4358853815977,41.0315436241612,76.6778523489933,34.2773431833788,10.0536912751678,23,288.674471778678,0,0,29.5061744966443,0,0.000088778952413187,0,73.5,34.7919463087248
2020-02-04 06:10:00,41.2350993377484,35.1488386715938,41.2350993377484,76,34.2526695051488,10.6953642384106,23,282.316797498956,0,0,29.5040132450331,0,0.0000896735094577038,0,73.5,34
2020-02-04 06:15:00,41.4271523178808,35.6834970044086,41.4271523178808,76,34.4386343600633,10.0198675496689,23,280.143947233438,0,0,29.5103907284769,0,0.000088942326812968,0,73.5,34
2020-02-04 06:20:00,41.4596026490065,36.1525898442976,41.4596026490065,76.6556291390728,34.6847048367146,10.1788079470199,35,268.807791160951,0,0,29.5136092715233,0,0.0000894699414542493,0,73.5,34
2020-02-04 06:25:00,41.2463087248322,34.5655178809915,41.2463087248322,78,34.9148717857106,12.2348993288591,35,288.133073097304,0,0,29.5166375838926,0,0.0000898613299800444,0,73.4986577181208,34
2020-02-04 06:30:00,41.1000000000001,35.1159452553919,41.1000000000001,78,34.7727704459549,10.4295302013423,26,281.657273554491,0,0,29.5276308724833,0,0.0000918463492870985,0,73.2999999999999,34
2020-02-04 06:35:00,41.1543624161073,35.1797268015929,41.1543624161073,78,34.8255697377583,10.9395973154362,28,285.811678408435,0,0,29.5426241610738,0,0.000092664834955314,0,73.2986577181207,34
2020-02-04 06:40:00,41.1999999999999,36.5093841501835,41.1999999999999,78.6644295302013,35.0825736579212,7.89261744966443,28,290.337859048414,0,0,29.5466174496645,0,0.0000946281794800823,0,73.1000000000002,34
2020-02-04 06:45:00,41.11677852349,35.7511237609022,41.11677852349,79,35.1090383764177,9.38926174496644,21,279.653256692106,0,0,29.5509932885907,0,0.0000950936346117952,0,73.1000000000002,34
2020-02-04 06:50:00,41.0604026845637,36.5257236530957,41.0604026845637,79,35.054201911032,8.09395973154362,28,287.040630409159,0,0,29.5444093959732,0,0.0000958940032213197,0,73.1818791946308,34
2020-02-04 06:55:00,41,35.6468959123641,41,79,34.9954484452298,8.87919463087248,28,281.016143499915,0,0,29.5389731543623,0,0.0000937902823803436,0,73.2999999999999,34
2020-02-04 07:00:00,41.0624161073826,36.3218785599225,41.0624161073826,79,35.056160359892,8,24,277.119990828756,0,0,29.5347852348993,0,0.000095608590166272,0,73.2999999999999,34
2020-02-04 07:05:00,41.2034013605442,34.7127509037106,41.2034013605442,79,35.1932953774412,11.8027210884354,25,275.999286050055,0,0,29.532387755102,0,0.0000942819093724589,0,73.382993197279,34
2020-02-04 07:10:00,41.4073825503356,35.6517570303181,41.4073825503356,79,35.3917039630994,10.2751677852349,25,278.379121920691,0,0,29.5330134228188,0,0.0000950000023269926,0,73.5,34
2020-02-04 07:15:00,41.5373333333334,35.369929559538,41.5373333333334,79,35.5181033096463,11.3333333333333,23,284.122181426101,0,0,29.5372,0,0.0000935474509549779,0,73.5,34
2020-02-04 07:20:00,41.5476510067114,34.9549903422534,41.5476510067114,79.6308724832215,35.7281214694554,12.3489932885906,27,285.068410521931,0,0,29.5422214765101,0,0.0000910470439559546,0,73.4986577181208,34
2020-02-04 07:25:00,41.5046357615894,35.4244155545135,41.5046357615894,80,35.8032677417738,11.205298013245,28,291.239823724709,0,0,29.5439867549669,0,0.0000895927741335566,0,73.2999999999999,33.3973509933775
2020-02-04 07:30:00,41.5,36.625272229257,41.5,80,35.798752065727,9.03311258278146,28,292.041287133928,0,0,29.5456092715231,0,0.0000891567102013681,0,73.2999999999999,33
2020-02-04 07:35:00,41.5,35.8515756383638,41.5,80,35.798752065727,10.4161073825503,28,302.110513014302,0,0,29.5520268456376,0,0.0000863662052846766,0,73.2583892617451,33
2020-02-04 07:40:00,41.5771812080538,35.5998756290026,41.5771812080538,80,35.873933935492,11.0671140939597,28,289.93776672464,0,0,29.5567986577182,0,0.0000870150556700646,0,73.1000000000002,33
2020-02-04 07:45:00,41.7859060402685,35.6528308438521,41.7859060402685,80,36.0772502607573,11.6107382550336,27,287.384585492984,0,0,29.5614026845637,0,0.0000880215481714624,0,73.1000000000002,33
2020-02-04 07:50:00,42.0046979865773,36.5650498450782,42.0046979865773,80,36.2903701803404,9.83221476510067,27,288.54913421974,0,0,29.5646241610739,1.20805369127517,0.0000902934705405616,0,73.1000000000002,33
2020-02-04 07:55:00,42.1797297297296,36.7737320020263,42.1797297297296,80,36.4608624755311,9.74324324324324,28,288.728286047833,0,0,29.5678243243244,5.08108108108108,0.0000788392033542582,0,73.0385135135135,33
2020-02-04 08:00:00,42.1999999999999,36.2286475478904,42.1999999999999,80,36.4806069551435,11.0544217687075,28,289.851544274754,0,0,29.572612244898,7.38095238095238,0.0000806677472837875,0,73,33
2020-02-04 08:05:00,42.2456375838927,35.9831160065061,42.2456375838927,80,36.5250604804991,11.8523489932886,25,284.545789441434,0,0,29.5766241610738,9.33557046979866,0.0000810571465197312,0,73,33
2020-02-04 08:10:00,42.2966442953021,36.5194862951239,42.2966442953021,80.5503355704698,36.7478828332954,10.9194630872483,24,292.988868379914,0,0,29.5812147651006,11,0.0000829070632702359,0,73,33
2020-02-04 08:15:00,42.2181208053691,35.7767467588186,42.2181208053691,81,36.8127564189784,12.4228187919463,26,294.391411782605,0,0,29.5866040268457,11.9664429530201,0.000103762710166658,0,72.918120805369,33
2020-02-04 08:20:00,42.2966442953021,36.8640518954295,42.2966442953021,81,36.8893539528336,9.65771812080537,26,299.637259294774,0,0,29.5910134228187,14.9395973154362,0.000102586948762379,0,72.7999999999999,33
2020-02-04 08:25:00,42.3364238410595,35.843908691742,42.3364238410595,81,36.9281576202358,12.953642384106,28,297.127404664632,0,0,29.5933642384106,21.205298013245,0.000103045439588598,0,72.7999999999999,33
2020-02-04 08:30:00,42.4807947019868,35.8549954510593,42.4807947019868,81.5165562913907,37.229841032982,13.205298013245,29,295.144874444846,0,0,29.5978145695364,25.476821192053,0,0,72.7999999999999,33
2020-02-04 08:35:00,42.7033112582781,36.8886839552145,42.7033112582781,81,37.2860408569972,10.9735099337748,29,299.329608653325,0,0,29.6045695364239,31.2119205298013,0.0000695886505743558,0,72.7999999999999,33.6026490066225
2020-02-04 08:40:00,42.8589403973509,37.2553016433995,42.8589403973509,81,37.4378483580635,10.3841059602649,24,293.096288221023,0,0,29.60959602649,36.9867549668874,0.0000922562395775891,0,72.9602649006623,34
2020-02-04 08:45:00,43.0355704697988,37.6348838870357,43.0355704697988,81,37.6101394117308,10.3020134228188,24,290.313291012785,0,0,29.6174026845637,43.6241610738255,0.000101228484524475,0,73,34
2020-02-04 08:50:00,43.2167785234899,38.2000911442241,43.2167785234899,81,37.7868941818743,9.52348993288591,23,294.122036628679,0,0,29.6220268456376,44.1409395973154,0.00010738986820063,0,73.0812080536915,35
2020-02-04 08:55:00,43.4536912751679,37.2340342404894,43.4536912751679,81,38.0179819451971,12.5637583892617,23,292.981982762124,0,0,29.6275906040268,56.3557046979866,0.00011250695541122,0.0268456375838926,73.1000000000002,35
2020-02-04 09:00:00,43.6852348993288,39.0616204373623,43.6852348993288,81,38.2438297886124,8.81879194630872,27,296.190194124045,0,0,29.6348187919463,66.4295302013423,0.000117179382560234,0.332885906040269,73.2624161073824,35
2020-02-04 09:05:00,43.8912751677852,37.6060037044687,43.8912751677852,81,38.444798993083,12.9597315436242,27,291.563114143045,0,0,29.6398255033557,75.1946308724832,0.00011797238073064,0.100671140939597,73.3818791946309,35
2020-02-04 09:10:00,44.1241610738254,38.8526505083689,44.1241610738254,80.8322147651007,38.618709738757,10.4496644295302,24,298.985623780837,0,0,29.6444161073826,84.3422818791946,0.000121126995725318,0.188590604026846,73.5409395973156,35
2020-02-04 09:15:00,44.3530201342281,39.0990046170517,44.3530201342281,80.0872483221476,38.6053269038372,10.7919463087248,25,301.023929473523,0,0,29.6518187919463,93.3087248322148,0.000124769528538614,0.188590604026846,73.6013422818794,35
2020-02-04 09:20:00,44.593288590604,39.8191929773381,44.593288590604,80,38.8116426260336,9.57718120805369,25,288.847732429738,0,0,29.6576308724832,103.469798657718,0.000131561473839354,0.218120805369128,73.7999999999999,35
2020-02-04 09:25:00,44.7812080536913,41.1495306840157,44.7812080536913,80,38.9946600117791,6.95973154362416,23,306.455921765948,0,0,29.6694295302013,111.758389261745,0.000135324388302928,0.551006711409396,73.7999999999999,35.006711409396
2020-02-04 09:30:00,44.958389261745,41.2057611140595,44.958389261745,80,39.1672173706669,7.73825503355705,18,303.570741659996,0,0,29.678422818792,123.214765100671,0.000139517776203004,0.422818791946309,73.9624161073826,35.7986577181208
2020-02-04 09:35:00,45.1422818791945,40.2978461651816,45.1422818791945,79.0201342281879,39.0306039614907,9.93959731543624,19,290.683299825969,0,0,29.6868322147651,132.939597315436,0.000143869903019921,0.441610738255033,74,36
2020-02-04 09:40:00,45.3165562913906,41.1961082364462,45.3165562913906,79,39.1935894910287,8.22516556291391,19,304.679092453593,0,0,29.6965894039735,142.344370860927,0.000152476231041236,0.667549668874171,74,36
2020-02-04 09:45:00,45.4973509933776,41.8402235845415,45.4973509933776,79,39.3693996735396,7.39072847682119,16,301.580835711727,0,0,29.7051920529801,153.026490066225,0.000158224042235324,0.565562913907284,74,36
2020-02-04 09:50:00,45.6754966887416,41.3780412270281,45.6754966887416,79,39.5426318807847,9.18543046357616,20,285.248682263617,0,0,29.7102052980132,166.072847682119,0.000164601559094884,0.68476821192053,74.0013245033113,36
2020-02-04 09:55:00,45.8530201342281,42.5560204559544,45.8530201342281,79,39.7152571266325,6.7248322147651,20,291.994149264155,0,0,29.7164228187919,174.073825503356,0.000170969142961667,0.626845637583893,74.2000000000001,36